EWG28M EDDN-EDDK

Flight info

Callsign EWG28M
Flight time 0h 43m
Altitude 24000
Route ERETO1G ERETO DCT LONLI L984 ASKIK T840 GULKO GULKO1D
Aircraft A319/M-SDE3FGHIRWY/LB1

Departure

Time 2026-04-20 15:41
Airport Nuremberg Airport (EDDN)

Arrival

Time 2026-04-20 16:24
Airport Cologne Bonn Airport (EDDK)
Time Latitude Longitude Altitude Speed Heading
2026-04-20 15:15 49.49504 11.07856 1027 ft 0 kts 188°
2026-04-20 15:31 49.49526 11.07861 1027 ft 4 kts 188°
2026-04-20 15:32 49.49552 11.07865 1030 ft 4 kts 176°
2026-04-20 15:32 49.49574 11.07856 1030 ft 4 kts 117°
2026-04-20 15:32 49.49576 11.07848 1030 ft 0 kts 98°
2026-04-20 15:35 49.49573 11.07883 1030 ft 10 kts 97°
2026-04-20 15:36 49.49563 11.08004 1030 ft 13 kts 97°
2026-04-20 15:36 49.49549 11.08154 1030 ft 15 kts 99°
2026-04-20 15:36 49.49535 11.08303 1032 ft 11 kts 96°
2026-04-20 15:36 49.49588 11.08366 1032 ft 12 kts 15°
2026-04-20 15:37 49.49611 11.08462 1032 ft 10 kts 92°
2026-04-20 15:37 49.49601 11.08587 1033 ft 15 kts 98°
2026-04-20 15:37 49.49584 11.08765 1035 ft 18 kts 98°
2026-04-20 15:37 49.49566 11.08954 1037 ft 18 kts 98°
2026-04-20 15:38 49.49550 11.09117 1038 ft 14 kts 98°
2026-04-20 15:38 49.49536 11.09251 1040 ft 7 kts 98°
2026-04-20 15:38 49.49532 11.09298 1041 ft 3 kts 96°
2026-04-20 15:38 49.49532 11.09308 1041 ft 0 kts 95°
2026-04-20 15:39 49.49532 11.09320 1041 ft 3 kts 90°
2026-04-20 15:39 49.49546 11.09382 1042 ft 10 kts 59°
2026-04-20 15:39 49.49599 11.09491 1042 ft 14 kts 51°
2026-04-20 15:39 49.49669 11.09564 1045 ft 11 kts
2026-04-20 15:40 49.49700 11.09519 1044 ft 10 kts 277°
2026-04-20 15:40 49.49705 11.09451 1043 ft 23 kts 277°
2026-04-20 15:40 49.49735 11.09172 1041 ft 57 kts 280°
2026-04-20 15:40 49.49826 11.08277 1029 ft 111 kts 278°
2026-04-20 15:41 49.49956 11.06849 1135 ft 149 kts 280°
2026-04-20 15:41 49.50091 11.05262 1732 ft 153 kts 283°
2026-04-20 15:41 49.50265 11.03623 2422 ft 159 kts 284°
2026-04-20 15:41 49.50449 11.01843 2808 ft 179 kts 282°
2026-04-20 15:42 49.50654 10.99827 3170 ft 202 kts 282°
2026-04-20 15:42 49.50878 10.97584 3621 ft 223 kts 282°
2026-04-20 15:42 49.51129 10.95177 4390 ft 230 kts 285°
2026-04-20 15:42 49.51912 10.93083 5228 ft 230 kts 321°
2026-04-20 15:43 49.53397 10.92179 6135 ft 235 kts 350°
2026-04-20 15:43 49.55093 10.92043 6830 ft 254 kts 358°
2026-04-20 15:43 49.56895 10.92161 7678 ft 263 kts
2026-04-20 15:43 49.58741 10.92343 8636 ft 268 kts
2026-04-20 15:44 49.60625 10.92508 9578 ft 273 kts
2026-04-20 15:44 49.62562 10.92645 10454 ft 280 kts 359°
2026-04-20 15:44 49.64558 10.92750 10778 ft 303 kts 359°
2026-04-20 15:44 49.66745 10.92830 11094 ft 324 kts 359°
2026-04-20 15:45 49.69016 10.93262 11746 ft 334 kts 12°
2026-04-20 15:45 49.71186 10.94603 12552 ft 340 kts 26°
2026-04-20 15:45 49.73120 10.96787 13344 ft 347 kts 38°
2026-04-20 15:45 49.74958 10.99224 14104 ft 350 kts 38°
2026-04-20 15:46 49.76816 11.01687 14798 ft 353 kts 38°
2026-04-20 15:46 49.78689 11.04173 15464 ft 356 kts 38°
2026-04-20 15:46 49.80578 11.06679 16146 ft 359 kts 38°
2026-04-20 15:46 49.82460 11.09236 16804 ft 363 kts 42°
2026-04-20 15:47 49.84111 11.12247 17440 ft 369 kts 53°
2026-04-20 15:47 49.85379 11.15730 18135 ft 375 kts 62°
2026-04-20 15:47 49.86498 11.19395 18762 ft 377 kts 62°
2026-04-20 15:47 49.87627 11.23074 19417 ft 378 kts 62°
2026-04-20 15:48 49.88922 11.26592 20110 ft 376 kts 52°
2026-04-20 15:48 49.90754 11.29475 20796 ft 375 kts 37°
2026-04-20 15:48 49.93021 11.31473 21420 ft 377 kts 21°
2026-04-20 15:48 49.95585 11.32413 21972 ft 382 kts
2026-04-20 15:49 49.98254 11.32173 22511 ft 389 kts 350°
2026-04-20 15:49 50.00816 11.30742 23016 ft 397 kts 334°
2026-04-20 15:49 50.03072 11.28220 23531 ft 405 kts 320°
2026-04-20 15:49 50.04967 11.24935 23951 ft 412 kts 309°
2026-04-20 15:50 50.06393 11.21116 24073 ft 416 kts 296°
2026-04-20 15:50 50.07270 11.16804 24108 ft 421 kts 283°
2026-04-20 15:50 50.07490 11.12248 24110 ft 424 kts 270°
2026-04-20 15:50 50.07427 11.07651 24109 ft 424 kts 271°
2026-04-20 15:51 50.07421 11.03058 24106 ft 424 kts 272°
2026-04-20 15:51 50.07448 10.98454 24109 ft 424 kts 272°
2026-04-20 15:51 50.07483 10.93868 24111 ft 424 kts 272°
2026-04-20 15:51 50.07514 10.89268 24111 ft 424 kts 272°
2026-04-20 15:52 50.07534 10.84680 24108 ft 425 kts 272°
2026-04-20 15:52 50.07540 10.80069 24109 ft 425 kts 271°
2026-04-20 15:52 50.07537 10.75460 24110 ft 425 kts 271°
2026-04-20 15:53 50.07513 10.66270 24116 ft 425 kts 271°
2026-04-20 15:53 50.07499 10.61729 24115 ft 425 kts 271°
2026-04-20 15:53 50.07485 10.57137 24114 ft 424 kts 271°
2026-04-20 15:53 50.07471 10.52538 24101 ft 424 kts 270°
2026-04-20 15:54 50.07456 10.47942 24098 ft 425 kts 270°
2026-04-20 15:54 50.07440 10.43333 24095 ft 426 kts 270°
2026-04-20 15:54 50.07423 10.38723 24092 ft 426 kts 270°
2026-04-20 15:54 50.07402 10.34106 24096 ft 426 kts 270°
2026-04-20 15:55 50.07374 10.29482 24098 ft 426 kts 269°
2026-04-20 15:55 50.07342 10.24869 24100 ft 426 kts 269°
2026-04-20 15:55 50.07314 10.20261 24098 ft 426 kts 270°
2026-04-20 15:55 50.07293 10.15642 24100 ft 427 kts 270°
2026-04-20 15:56 50.07277 10.11031 24106 ft 426 kts 270°
2026-04-20 15:56 50.07258 10.06416 24100 ft 426 kts 269°
2026-04-20 15:56 50.07231 10.01799 24101 ft 427 kts 269°
2026-04-20 15:56 50.07193 9.97173 24103 ft 427 kts 268°
2026-04-20 15:57 50.07147 9.92548 24103 ft 427 kts 268°
2026-04-20 15:57 50.07098 9.87933 24089 ft 427 kts 268°
2026-04-20 15:57 50.07048 9.83306 24089 ft 427 kts 268°
2026-04-20 15:57 50.06998 9.78686 24093 ft 427 kts 268°
2026-04-20 15:58 50.06950 9.74105 24092 ft 427 kts 268°
2026-04-20 15:58 50.06904 9.69483 24098 ft 427 kts 268°
2026-04-20 15:58 50.06862 9.64871 24103 ft 427 kts 269°
2026-04-20 15:58 50.06819 9.60249 24101 ft 426 kts 268°
2026-04-20 15:59 50.06772 9.55639 24109 ft 426 kts 268°
2026-04-20 15:59 50.06723 9.51030 24119 ft 425 kts 268°
2026-04-20 15:59 50.06672 9.46434 24124 ft 424 kts 268°
2026-04-20 15:59 50.06618 9.41839 24122 ft 424 kts 268°
2026-04-20 16:00 50.06561 9.37256 24107 ft 424 kts 268°
2026-04-20 16:00 50.06499 9.32664 24116 ft 424 kts 268°
2026-04-20 16:00 50.06436 9.28084 24122 ft 423 kts 268°
2026-04-20 16:00 50.06371 9.23500 24110 ft 423 kts 268°
2026-04-20 16:01 50.06307 9.18919 24119 ft 423 kts 268°
2026-04-20 16:01 50.06241 9.14336 24114 ft 423 kts 268°
2026-04-20 16:01 50.06174 9.09818 24113 ft 415 kts 269°
2026-04-20 16:01 50.06104 9.05370 24121 ft 407 kts 269°
2026-04-20 16:02 50.06034 9.00993 24124 ft 404 kts 270°
2026-04-20 16:02 50.05964 8.96603 24126 ft 403 kts 270°
2026-04-20 16:02 50.05893 8.92216 24129 ft 403 kts 269°
2026-04-20 16:02 50.05817 8.87842 24126 ft 403 kts 269°
2026-04-20 16:03 50.05739 8.83457 24133 ft 404 kts 269°
2026-04-20 16:03 50.05660 8.79143 24132 ft 403 kts 269°
2026-04-20 16:03 50.05580 8.74779 24139 ft 403 kts 269°
2026-04-20 16:03 50.05497 8.70414 24140 ft 403 kts 269°
2026-04-20 16:04 50.05602 8.66070 24137 ft 402 kts 278°
2026-04-20 16:04 50.06186 8.61819 24128 ft 401 kts 288°
2026-04-20 16:04 50.07277 8.57840 24133 ft 400 kts 299°
2026-04-20 16:04 50.08860 8.54287 24138 ft 400 kts 311°
2026-04-20 16:05 50.10900 8.51334 24139 ft 400 kts 323°
2026-04-20 16:05 50.13312 8.49111 24063 ft 408 kts 336°
2026-04-20 16:05 50.15984 8.47532 23371 ft 411 kts 342°
2026-04-20 16:05 50.18679 8.46085 22754 ft 407 kts 342°
2026-04-20 16:06 50.21342 8.44677 22161 ft 402 kts 342°
2026-04-20 16:06 50.23977 8.43278 21576 ft 397 kts 341°
2026-04-20 16:06 50.26573 8.41896 21043 ft 392 kts 341°
2026-04-20 16:06 50.29102 8.40354 20499 ft 388 kts 334°
2026-04-20 16:07 50.31389 8.38250 19992 ft 383 kts 327°
2026-04-20 16:07 50.33648 8.35975 19497 ft 379 kts 327°
2026-04-20 16:07 50.35833 8.33789 18987 ft 375 kts 328°
2026-04-20 16:07 50.38025 8.31605 18486 ft 371 kts 328°
2026-04-20 16:08 50.40194 8.29446 17909 ft 367 kts 328°
2026-04-20 16:08 50.42336 8.27308 17387 ft 362 kts 328°
2026-04-20 16:08 50.44444 8.25205 16852 ft 356 kts 328°
2026-04-20 16:08 50.46520 8.23130 16330 ft 352 kts 328°
2026-04-20 16:09 50.48574 8.21068 15793 ft 348 kts 328°
2026-04-20 16:09 50.50602 8.19028 15260 ft 345 kts 328°
2026-04-20 16:09 50.52612 8.17003 14734 ft 342 kts 328°
2026-04-20 16:09 50.54611 8.14996 14204 ft 340 kts 328°
2026-04-20 16:10 50.56601 8.13000 13640 ft 338 kts 328°
2026-04-20 16:10 50.58576 8.11003 13094 ft 335 kts 328°
2026-04-20 16:10 50.60509 8.09045 12570 ft 332 kts 328°
2026-04-20 16:10 50.62439 8.07087 12044 ft 329 kts 329°
2026-04-20 16:11 50.64355 8.05145 11517 ft 326 kts 328°
2026-04-20 16:11 50.66244 8.03231 11225 ft 317 kts 328°
2026-04-20 16:11 50.68057 8.01390 11091 ft 303 kts 328°
2026-04-20 16:11 50.69795 7.99623 10963 ft 292 kts 328°
2026-04-20 16:12 50.71486 7.97901 10716 ft 286 kts 328°
2026-04-20 16:12 50.73145 7.96211 10460 ft 282 kts 328°
2026-04-20 16:12 50.74727 7.94505 10516 ft 266 kts 322°
2026-04-20 16:12 50.76000 7.92484 10491 ft 257 kts 311°
2026-04-20 16:13 50.77019 7.90141 10157 ft 261 kts 306°
2026-04-20 16:13 50.78063 7.87647 9809 ft 278 kts 306°
2026-04-20 16:13 50.79136 7.85088 9465 ft 279 kts 306°
2026-04-20 16:13 50.80208 7.82540 9124 ft 278 kts 306°
2026-04-20 16:14 50.81275 7.80002 8804 ft 276 kts 305°
2026-04-20 16:14 50.82336 7.77477 8481 ft 275 kts 305°
2026-04-20 16:14 50.83377 7.74993 8165 ft 273 kts 305°
2026-04-20 16:14 50.84421 7.72496 7839 ft 271 kts 305°
2026-04-20 16:15 50.85455 7.70023 7528 ft 268 kts 306°
2026-04-20 16:15 50.86485 7.67561 7206 ft 267 kts 305°
2026-04-20 16:15 50.87502 7.65123 6893 ft 265 kts 304°
2026-04-20 16:15 50.88517 7.62687 6581 ft 265 kts 304°
2026-04-20 16:16 50.89522 7.60276 6243 ft 257 kts 305°
2026-04-20 16:16 50.90483 7.57973 5937 ft 246 kts 305°
2026-04-20 16:16 50.91442 7.55754 5432 ft 243 kts 311°
2026-04-20 16:16 50.92840 7.54443 5052 ft 231 kts 353°
2026-04-20 16:17 50.94357 7.54779 5007 ft 215 kts 16°
2026-04-20 16:17 50.95746 7.55428 4898 ft 206 kts
2026-04-20 16:17 50.97085 7.54932 4612 ft 200 kts 325°
2026-04-20 16:17 50.97832 7.53124 4399 ft 200 kts 286°
2026-04-20 16:18 50.97631 7.50972 4119 ft 203 kts 247°
2026-04-20 16:18 50.96960 7.49030 4006 ft 202 kts 247°
2026-04-20 16:18 50.96355 7.47022 4006 ft 201 kts 249°
2026-04-20 16:18 50.95772 7.45005 4006 ft 199 kts 249°
2026-04-20 16:19 50.95204 7.43047 4005 ft 193 kts 249°
2026-04-20 16:19 50.94837 7.41793 4004 ft 183 kts 248°
2026-04-20 16:19 50.94314 7.40012 3959 ft 176 kts 249°
2026-04-20 16:19 50.93794 7.38225 3572 ft 182 kts 249°
2026-04-20 16:20 50.93261 7.36427 3249 ft 177 kts 249°
2026-04-20 16:20 50.92740 7.34691 2987 ft 170 kts 249°
2026-04-20 16:20 50.92236 7.33008 2758 ft 169 kts 249°
2026-04-20 16:20 50.91737 7.31349 2528 ft 168 kts 249°
2026-04-20 16:21 50.91240 7.29695 2284 ft 160 kts 248°
2026-04-20 16:21 50.90775 7.28154 2085 ft 151 kts 249°
2026-04-20 16:21 50.90345 7.26729 1881 ft 138 kts 250°
2026-04-20 16:21 50.89936 7.25370 1688 ft 135 kts 251°
2026-04-20 16:22 50.89534 7.24033 1499 ft 134 kts 250°
2026-04-20 16:22 50.89135 7.22712 1320 ft 132 kts 248°
2026-04-20 16:22 50.88747 7.21425 1132 ft 128 kts 249°
2026-04-20 16:22 50.88362 7.20152 962 ft 129 kts 247°
2026-04-20 16:23 50.87975 7.18868 785 ft 129 kts 248°
2026-04-20 16:23 50.87587 7.17583 606 ft 130 kts 248°
2026-04-20 16:23 50.87186 7.16278 410 ft 133 kts 247°
2026-04-20 16:23 50.86788 7.14972 278 ft 127 kts 247°
2026-04-20 16:24 50.86470 7.13897 256 ft 86 kts 244°
2026-04-20 16:24 50.86308 7.13365 252 ft 37 kts 244°
2026-04-20 16:24 50.86194 7.12979 248 ft 41 kts 245°
2026-04-20 16:24 50.86103 7.12598 240 ft 31 kts 270°
2026-04-20 16:25 50.86111 7.12375 237 ft 16 kts 312°
2026-04-20 16:25 50.86231 7.12331 233 ft 20 kts 351°
2026-04-20 16:25 50.86381 7.12274 234 ft 24 kts 345°
2026-04-20 16:25 50.86550 7.12201 232 ft 26 kts 345°
2026-04-20 16:26 50.86738 7.12130 233 ft 30 kts 346°
2026-04-20 16:26 50.86927 7.12054 232 ft 16 kts 345°
2026-04-20 16:26 50.87009 7.12058 233 ft 13 kts 20°
2026-04-20 16:26 50.87090 7.12126 234 ft 14 kts 51°
2026-04-20 16:27 50.87176 7.12246 234 ft 19 kts 19°
2026-04-20 16:27 50.87287 7.12304 232 ft 19 kts 18°
2026-04-20 16:27 50.87426 7.12375 233 ft 23 kts 18°
2026-04-20 16:27 50.87595 7.12461 232 ft 28 kts 17°
2026-04-20 16:28 50.87797 7.12560 232 ft 31 kts 17°
2026-04-20 16:28 50.87940 7.12580 232 ft 22 kts 325°
2026-04-20 16:28 50.88006 7.12486 232 ft 11 kts 317°
2026-04-20 16:28 50.88071 7.12386 232 ft 15 kts 311°
2026-04-20 16:29 50.88105 7.12258 232 ft 11 kts 282°
2026-04-20 16:29 50.88080 7.12216 233 ft 5 kts 210°
2026-04-20 16:29 50.88063 7.12196 232 ft 1 kts 216°
2026-04-20 16:29 50.88062 7.12195 232 ft 0 kts 214°